Time,TemperatureF,DewpointF,PressureIn,WindDirection,WindDirectionDegrees,WindSpeedMPH,WindSpeedGustMPH,Humidity,HourlyPrecipIn,Conditions,Clouds,dailyrainin,SoftwareType,DateUTC
2013-02-16 00:02:00,24.0,19.0,-100.00,SW,215,0.0,0.0,81,-99.99,,,-99.99,,2013-02-16 06:02:00,
2013-02-16 00:11:00,24.0,19.0,-100.00,South,190,1.0,1.0,82,-99.99,,,-99.99,,2013-02-16 06:11:00,
2013-02-16 00:21:00,24.0,19.0,-100.00,South,190,1.0,1.0,82,-99.99,,,-99.99,,2013-02-16 06:21:00,
2013-02-16 00:42:00,23.0,19.0,-100.00,SSW,205,1.0,1.0,83,-99.99,,,-99.99,,2013-02-16 06:42:00,
2013-02-16 00:52:00,23.0,19.0,-100.00,SSW,205,0.0,1.0,84,-99.99,,,-99.99,,2013-02-16 06:52:00,
2013-02-16 01:02:00,23.0,19.0,-100.00,SSW,205,0.0,1.0,84,-99.99,,,-99.99,,2013-02-16 07:02:00,
2013-02-16 01:11:00,23.0,19.0,-100.00,South,190,2.0,3.0,85,-99.99,,,-99.99,,2013-02-16 07:11:00,
2013-02-16 01:21:00,23.0,19.0,-100.00,South,180,1.0,2.0,86,-99.99,,,-99.99,,2013-02-16 07:21:00,
2013-02-16 01:31:00,23.0,19.0,-100.00,South,180,1.0,2.0,86,-99.99,,,-99.99,,2013-02-16 07:31:00,
2013-02-16 01:42:00,22.0,19.0,-100.00,South,180,1.0,1.0,87,-99.99,,,-99.99,,2013-02-16 07:42:00,
2013-02-16 01:53:00,23.0,19.0,-100.00,SSW,200,1.0,1.0,87,-99.99,,,-99.99,,2013-02-16 07:53:00,
2013-02-16 02:01:00,23.0,19.0,-100.00,SSW,200,1.0,1.0,87,-99.99,,,-99.99,,2013-02-16 08:01:00,
2013-02-16 02:11:00,22.0,19.0,-100.00,South,175,2.0,3.0,87,-99.99,,,-99.99,,2013-02-16 08:11:00,
2013-02-16 02:21:00,22.0,19.0,-100.00,SSE,165,1.0,2.0,88,-99.99,,,-99.99,,2013-02-16 08:21:00,
2013-02-16 02:31:00,22.0,19.0,-100.00,SSE,165,1.0,2.0,88,-99.99,,,-99.99,,2013-02-16 08:31:00,
2013-02-16 02:42:00,22.0,19.0,-100.00,South,180,0.0,1.0,88,-99.99,,,-99.99,,2013-02-16 08:42:00,
2013-02-16 02:52:00,22.0,20.0,-100.00,SSW,210,1.0,1.0,89,-99.99,,,-99.99,,2013-02-16 08:52:00,
2013-02-16 03:01:00,22.0,20.0,-100.00,SSW,210,1.0,1.0,89,-99.99,,,-99.99,,2013-02-16 09:01:00,
2013-02-16 03:11:00,23.0,20.0,-100.00,WNW,290,4.0,6.0,89,-99.99,,,-99.99,,2013-02-16 09:11:00,
2013-02-16 03:21:00,25.0,19.0,-100.00,WNW,290,3.0,3.0,77,-99.99,,,-99.99,,2013-02-16 09:21:00,
2013-02-16 03:32:00,25.0,19.0,-100.00,WNW,290,3.0,3.0,77,-99.99,,,-99.99,,2013-02-16 09:32:00,
2013-02-16 03:42:00,25.0,18.0,-100.00,West,275,2.0,3.0,73,-99.99,,,-99.99,,2013-02-16 09:42:00,
2013-02-16 03:52:00,25.0,18.0,-100.00,WNW,295,4.0,6.0,73,-99.99,,,-99.99,,2013-02-16 09:52:00,
2013-02-16 04:01:00,25.0,18.0,-100.00,WNW,295,4.0,6.0,73,-99.99,,,-99.99,,2013-02-16 10:01:00,
2013-02-16 04:11:00,26.0,18.0,-100.00,WNW,285,4.0,6.0,73,-99.99,,,-99.99,,2013-02-16 10:11:00,
2013-02-16 04:21:00,26.0,19.0,-100.00,NW,305,4.0,6.0,72,-99.99,,,-99.99,,2013-02-16 10:21:00,
2013-02-16 04:31:00,26.0,19.0,-100.00,NW,305,4.0,6.0,72,-99.99,,,-99.99,,2013-02-16 10:31:00,
2013-02-16 04:42:00,27.0,18.0,-100.00,NW,315,6.0,8.0,71,-99.99,,,-99.99,,2013-02-16 10:42:00,
2013-02-16 04:52:00,27.0,18.0,-100.00,NW,310,4.0,4.0,70,-99.99,,,-99.99,,2013-02-16 10:52:00,
2013-02-16 05:02:00,27.0,18.0,-100.00,NW,310,4.0,4.0,70,-99.99,,,-99.99,,2013-02-16 11:02:00,
2013-02-16 05:11:00,27.0,18.0,-100.00,NNW,345,4.0,6.0,70,-99.99,,,-99.99,,2013-02-16 11:11:00,
2013-02-16 05:22:00,27.0,18.0,-100.00,NW,310,6.0,9.0,70,-99.99,,,-99.99,,2013-02-16 11:22:00,
2013-02-16 05:32:00,27.0,18.0,-100.00,NW,310,6.0,9.0,70,-99.99,,,-99.99,,2013-02-16 11:32:00,
2013-02-16 05:42:00,27.0,18.0,-100.00,NNW,335,8.0,10.0,70,-99.99,,,-99.99,,2013-02-16 11:42:00,
2013-02-16 05:52:00,26.0,18.0,-100.00,North,0,6.0,9.0,69,-99.99,,,-99.99,,2013-02-16 11:52:00,
2013-02-16 06:02:00,26.0,18.0,-100.00,North,0,6.0,9.0,69,-99.99,,,-99.99,,2013-02-16 12:02:00,
2013-02-16 06:12:00,26.0,15.0,-100.00,NW,315,4.0,9.0,63,-99.99,,,-99.99,,2013-02-16 12:12:00,
2013-02-16 06:22:00,25.0,15.0,-100.00,NNW,335,4.0,8.0,64,-99.99,,,-99.99,,2013-02-16 12:22:00,
2013-02-16 06:32:00,25.0,15.0,-100.00,NNW,335,4.0,8.0,64,-99.99,,,-99.99,,2013-02-16 12:32:00,
2013-02-16 06:42:00,25.0,14.0,-100.00,NNW,340,3.0,4.0,64,-99.99,,,-99.99,,2013-02-16 12:42:00,
2013-02-16 06:52:00,24.0,14.0,-100.00,NW,325,4.0,9.0,65,-99.99,,,-99.99,,2013-02-16 12:52:00,
2013-02-16 07:02:00,24.0,14.0,-100.00,NW,325,4.0,9.0,65,-99.99,,,-99.99,,2013-02-16 13:02:00,
2013-02-16 07:12:00,24.0,14.0,-100.00,NW,320,4.0,6.0,66,-99.99,,,-99.99,,2013-02-16 13:12:00,
2013-02-16 07:21:00,24.0,14.0,-100.00,North,0,2.0,4.0,66,-99.99,,,-99.99,,2013-02-16 13:21:00,
2013-02-16 07:32:00,24.0,14.0,-100.00,North,0,2.0,4.0,66,-99.99,,,-99.99,,2013-02-16 13:32:00,
2013-02-16 07:41:00,24.0,14.0,-100.00,North,0,2.0,4.0,66,-99.99,,,-99.99,,2013-02-16 13:41:00,
2013-02-16 08:11:00,25.0,15.0,-100.00,NNW,335,4.0,9.0,66,-99.99,,,-99.99,,2013-02-16 14:11:00,
2013-02-16 08:21:00,26.0,16.0,-100.00,North,355,3.0,6.0,65,-99.99,,,-99.99,,2013-02-16 14:21:00,
2013-02-16 08:32:00,26.0,16.0,-100.00,North,355,3.0,6.0,65,-99.99,,,-99.99,,2013-02-16 14:32:00,
2013-02-16 08:41:00,26.0,15.0,-100.00,NNW,345,6.0,8.0,63,-99.99,,,-99.99,,2013-02-16 14:41:00,
2013-02-16 08:52:00,27.0,15.0,-100.00,NW,310,6.0,11.0,62,-99.99,,,-99.99,,2013-02-16 14:52:00,
2013-02-16 09:01:00,27.0,15.0,-100.00,NW,310,6.0,11.0,62,-99.99,,,-99.99,,2013-02-16 15:01:00,
2013-02-16 09:11:00,27.0,15.0,-100.00,WNW,300,10.0,14.0,62,-99.99,,,-99.99,,2013-02-16 15:11:00,
2013-02-16 09:21:00,27.0,15.0,-100.00,NW,320,10.0,14.0,60,-99.99,,,-99.99,,2013-02-16 15:21:00,
2013-02-16 09:32:00,27.0,15.0,-100.00,NW,320,10.0,14.0,60,-99.99,,,-99.99,,2013-02-16 15:32:00,
2013-02-16 09:42:00,27.0,14.0,-100.00,WNW,300,10.0,12.0,58,-99.99,,,-99.99,,2013-02-16 15:42:00,
2013-02-16 09:52:00,28.0,14.0,-100.00,NW,315,12.0,17.0,57,-99.99,,,-99.99,,2013-02-16 15:52:00,
2013-02-16 10:01:00,28.0,14.0,-100.00,NW,315,12.0,17.0,57,-99.99,,,-99.99,,2013-02-16 16:01:00,
2013-02-16 10:11:00,28.0,15.0,-100.00,NW,315,8.0,12.0,56,-99.99,,,-99.99,,2013-02-16 16:11:00,
2013-02-16 10:21:00,29.0,14.0,-100.00,WNW,290,9.0,10.0,52,-99.99,,,-99.99,,2013-02-16 16:21:00,
2013-02-16 10:32:00,29.0,14.0,-100.00,WNW,290,9.0,10.0,52,-99.99,,,-99.99,,2013-02-16 16:32:00,
2013-02-16 10:42:00,30.0,14.0,-100.00,North,0,6.0,12.0,51,-99.99,,,-99.99,,2013-02-16 16:42:00,
2013-02-16 10:52:00,29.0,13.0,-100.00,WNW,300,9.0,12.0,50,-99.99,,,-99.99,,2013-02-16 16:52:00,
2013-02-16 11:01:00,29.0,13.0,-100.00,WNW,300,9.0,12.0,50,-99.99,,,-99.99,,2013-02-16 17:01:00,
2013-02-16 11:11:00,31.0,14.0,-100.00,NNW,335,10.0,14.0,49,-99.99,,,-99.99,,2013-02-16 17:11:00,
2013-02-16 11:22:00,31.0,13.0,-100.00,NW,315,12.0,18.0,48,-99.99,,,-99.99,,2013-02-16 17:22:00,
2013-02-16 11:32:00,31.0,13.0,-100.00,NW,315,12.0,18.0,48,-99.99,,,-99.99,,2013-02-16 17:32:00,
2013-02-16 11:42:00,31.0,14.0,-100.00,North,0,6.0,9.0,47,-99.99,,,-99.99,,2013-02-16 17:42:00,
2013-02-16 11:52:00,31.0,13.0,-100.00,West,280,6.0,8.0,46,-99.99,,,-99.99,,2013-02-16 17:52:00,
2013-02-16 12:02:00,31.0,13.0,-100.00,West,280,6.0,8.0,46,-99.99,,,-99.99,,2013-02-16 18:02:00,
2013-02-16 12:11:00,32.0,13.0,-100.00,NW,305,6.0,9.0,45,-99.99,,,-99.99,,2013-02-16 18:11:00,
2013-02-16 12:21:00,32.0,13.0,-100.00,WNW,300,9.0,12.0,45,-99.99,,,-99.99,,2013-02-16 18:21:00,
2013-02-16 12:33:00,32.0,13.0,-100.00,WNW,300,9.0,12.0,45,-99.99,,,-99.99,,2013-02-16 18:33:00,
2013-02-16 12:42:00,32.0,12.0,-100.00,North,5,9.0,14.0,42,-99.99,,,-99.99,,2013-02-16 18:42:00,
2013-02-16 12:52:00,32.0,12.0,-100.00,NNW,345,8.0,12.0,42,-99.99,,,-99.99,,2013-02-16 18:52:00,
2013-02-16 13:02:00,32.0,12.0,-100.00,NNW,345,8.0,12.0,42,-99.99,,,-99.99,,2013-02-16 19:02:00,
2013-02-16 13:11:00,32.0,11.0,-100.00,NW,310,8.0,12.0,40,-99.99,,,-99.99,,2013-02-16 19:11:00,
2013-02-16 13:21:00,34.0,12.0,-100.00,NW,310,11.0,18.0,39,-99.99,,,-99.99,,2013-02-16 19:21:00,
2013-02-16 13:31:00,34.0,12.0,-100.00,NW,310,11.0,18.0,39,-99.99,,,-99.99,,2013-02-16 19:31:00,
2013-02-16 13:42:00,34.0,11.0,-100.00,NNW,340,4.0,14.0,37,-99.99,,,-99.99,,2013-02-16 19:42:00,
2013-02-16 13:52:00,35.0,11.0,-100.00,North,10,4.0,9.0,36,-99.99,,,-99.99,,2013-02-16 19:52:00,
2013-02-16 14:01:00,35.0,11.0,-100.00,North,10,4.0,9.0,36,-99.99,,,-99.99,,2013-02-16 20:01:00,
2013-02-16 14:11:00,34.0,10.0,-100.00,North,0,4.0,10.0,36,-99.99,,,-99.99,,2013-02-16 20:11:00,
2013-02-16 14:21:00,34.0,9.0,-100.00,NW,310,11.0,16.0,35,-99.99,,,-99.99,,2013-02-16 20:21:00,
2013-02-16 14:32:00,34.0,9.0,-100.00,NW,310,11.0,16.0,35,-99.99,,,-99.99,,2013-02-16 20:32:00,
2013-02-16 14:42:00,35.0,10.0,-100.00,NNW,330,6.0,10.0,35,-99.99,,,-99.99,,2013-02-16 20:42:00,
2013-02-16 14:52:00,36.0,10.0,-100.00,NW,305,10.0,16.0,34,-99.99,,,-99.99,,2013-02-16 20:52:00,
2013-02-16 15:02:00,36.0,10.0,-100.00,NW,305,10.0,16.0,34,-99.99,,,-99.99,,2013-02-16 21:02:00,
2013-02-16 15:11:00,36.0,9.0,-100.00,WNW,295,6.0,9.0,33,-99.99,,,-99.99,,2013-02-16 21:11:00,
2013-02-16 15:21:00,36.0,9.0,-100.00,NW,315,9.0,12.0,32,-99.99,,,-99.99,,2013-02-16 21:21:00,
2013-02-16 15:32:00,36.0,9.0,-100.00,NW,315,9.0,12.0,32,-99.99,,,-99.99,,2013-02-16 21:32:00,
2013-02-16 15:42:00,35.0,8.0,-100.00,NNE,15,3.0,4.0,31,-99.99,,,-99.99,,2013-02-16 21:42:00,
2013-02-16 15:52:00,36.0,8.0,-100.00,North,0,6.0,9.0,31,-99.99,,,-99.99,,2013-02-16 21:52:00,
2013-02-16 16:01:00,36.0,8.0,-100.00,North,0,6.0,9.0,31,-99.99,,,-99.99,,2013-02-16 22:01:00,
2013-02-16 16:11:00,36.0,8.0,-100.00,NW,315,8.0,12.0,30,-99.99,,,-99.99,,2013-02-16 22:11:00,
2013-02-16 16:21:00,35.0,6.0,-100.00,North,5,8.0,11.0,29,-99.99,,,-99.99,,2013-02-16 22:21:00,
2013-02-16 16:32:00,35.0,6.0,-100.00,North,5,8.0,11.0,29,-99.99,,,-99.99,,2013-02-16 22:32:00,
2013-02-16 16:42:00,36.0,6.0,-100.00,North,0,6.0,9.0,29,-99.99,,,-99.99,,2013-02-16 22:42:00,
2013-02-16 16:52:00,36.0,8.0,-100.00,North,0,3.0,6.0,30,-99.99,,,-99.99,,2013-02-16 22:52:00,
2013-02-16 17:02:00,36.0,8.0,-100.00,North,0,3.0,6.0,30,-99.99,,,-99.99,,2013-02-16 23:02:00,
2013-02-16 17:11:00,35.0,6.0,-100.00,WNW,290,4.0,6.0,29,-99.99,,,-99.99,,2013-02-16 23:11:00,
2013-02-16 17:21:00,36.0,7.0,-100.00,WNW,295,4.0,6.0,29,-99.99,,,-99.99,,2013-02-16 23:21:00,
2013-02-16 17:31:00,36.0,7.0,-100.00,WNW,295,4.0,6.0,29,-99.99,,,-99.99,,2013-02-16 23:31:00,
2013-02-16 17:42:00,36.0,7.0,-100.00,NW,305,3.0,4.0,29,-99.99,,,-99.99,,2013-02-16 23:42:00,
2013-02-16 17:52:00,34.0,6.0,-100.00,WNW,300,3.0,4.0,29,-99.99,,,-99.99,,2013-02-16 23:52:00,
2013-02-16 18:02:00,34.0,6.0,-100.00,WNW,300,3.0,4.0,29,-99.99,,,-99.99,,2013-02-17 00:02:00,
2013-02-16 18:12:00,33.0,5.0,-100.00,West,265,1.0,2.0,30,-99.99,,,-99.99,,2013-02-17 00:12:00,
2013-02-16 18:22:00,32.0,6.0,-100.00,WNW,290,2.0,3.0,32,-99.99,,,-99.99,,2013-02-17 00:22:00,
2013-02-16 18:32:00,32.0,6.0,-100.00,WNW,290,2.0,3.0,32,-99.99,,,-99.99,,2013-02-17 00:32:00,
2013-02-16 18:42:00,31.0,6.0,-100.00,West,275,1.0,2.0,34,-99.99,,,-99.99,,2013-02-17 00:42:00,
2013-02-16 18:52:00,30.0,6.0,-100.00,SW,215,0.0,1.0,36,-99.99,,,-99.99,,2013-02-17 00:52:00,
2013-02-16 19:01:00,30.0,6.0,-100.00,SW,215,0.0,1.0,36,-99.99,,,-99.99,,2013-02-17 01:01:00,
2013-02-16 19:11:00,28.0,8.0,-100.00,SSW,200,1.0,1.0,41,-99.99,,,-99.99,,2013-02-17 01:11:00,
2013-02-16 19:21:00,28.0,8.0,-100.00,SW,230,0.0,0.0,42,-99.99,,,-99.99,,2013-02-17 01:21:00,
2013-02-16 19:31:00,28.0,8.0,-100.00,SW,230,0.0,0.0,42,-99.99,,,-99.99,,2013-02-17 01:31:00,
2013-02-16 19:41:00,28.0,8.0,-100.00,SW,230,0.0,0.0,42,-99.99,,,-99.99,,2013-02-17 01:41:00,
2013-02-16 19:52:00,26.0,9.0,-100.00,South,185,1.0,1.0,48,-99.99,,,-99.99,,2013-02-17 01:52:00,
2013-02-16 20:01:00,26.0,9.0,-100.00,South,185,1.0,1.0,48,-99.99,,,-99.99,,2013-02-17 02:01:00,
2013-02-16 20:11:00,25.0,10.0,-100.00,SSW,210,0.0,1.0,51,-99.99,,,-99.99,,2013-02-17 02:11:00,
2013-02-16 20:21:00,24.0,10.0,-100.00,South,180,1.0,2.0,54,-99.99,,,-99.99,,2013-02-17 02:21:00,
2013-02-16 20:31:00,24.0,10.0,-100.00,South,180,1.0,2.0,54,-99.99,,,-99.99,,2013-02-17 02:31:00,
2013-02-16 20:41:00,24.0,11.0,-100.00,South,180,1.0,2.0,57,-99.99,,,-99.99,,2013-02-17 02:41:00,
2013-02-16 20:52:00,24.0,12.0,-100.00,SW,225,0.0,1.0,60,-99.99,,,-99.99,,2013-02-17 02:52:00,
2013-02-16 21:02:00,24.0,12.0,-100.00,SW,225,0.0,1.0,60,-99.99,,,-99.99,,2013-02-17 03:02:00,
2013-02-16 21:11:00,23.0,12.0,-100.00,South,190,1.0,1.0,62,-99.99,,,-99.99,,2013-02-17 03:11:00,
2013-02-16 21:21:00,22.0,12.0,-100.00,South,190,0.0,1.0,64,-99.99,,,-99.99,,2013-02-17 03:21:00,
2013-02-16 21:31:00,22.0,12.0,-100.00,South,190,0.0,1.0,64,-99.99,,,-99.99,,2013-02-17 03:31:00,
2013-02-16 21:42:00,22.0,13.0,-100.00,SSW,205,0.0,0.0,67,-99.99,,,-99.99,,2013-02-17 03:42:00,
2013-02-16 21:52:00,22.0,13.0,-100.00,SSW,195,1.0,1.0,69,-99.99,,,-99.99,,2013-02-17 03:52:00,
2013-02-16 22:01:00,22.0,13.0,-100.00,SSW,195,1.0,1.0,69,-99.99,,,-99.99,,2013-02-17 04:01:00,
2013-02-16 22:11:00,21.0,13.0,-100.00,South,190,3.0,4.0,71,-99.99,,,-99.99,,2013-02-17 04:11:00,
2013-02-16 22:21:00,21.0,14.0,-100.00,South,190,3.0,3.0,73,-99.99,,,-99.99,,2013-02-17 04:21:00,
2013-02-16 22:31:00,21.0,14.0,-100.00,South,190,3.0,3.0,73,-99.99,,,-99.99,,2013-02-17 04:31:00,
2013-02-16 22:41:00,21.0,14.0,-100.00,South,180,3.0,3.0,74,-99.99,,,-99.99,,2013-02-17 04:41:00,
2013-02-16 22:52:00,20.0,14.0,-100.00,South,180,3.0,3.0,75,-99.99,,,-99.99,,2013-02-17 04:52:00,
2013-02-16 23:02:00,20.0,14.0,-100.00,South,180,3.0,3.0,75,-99.99,,,-99.99,,2013-02-17 05:02:00,
2013-02-16 23:12:00,20.0,14.0,-100.00,South,180,3.0,3.0,76,-99.99,,,-99.99,,2013-02-17 05:12:00,
2013-02-16 23:22:00,20.0,14.0,-100.00,South,175,3.0,3.0,78,-99.99,,,-99.99,,2013-02-17 05:22:00,
2013-02-16 23:31:00,19.0,14.0,-100.00,South,190,2.0,3.0,79,-99.99,,,-99.99,,2013-02-17 05:31:00,
2013-02-16 23:33:00,20.0,14.0,-100.00,South,175,3.0,3.0,78,-99.99,,,-99.99,,2013-02-17 05:33:00,
2013-02-16 23:42:00,20.0,14.0,-100.00,South,180,3.0,3.0,78,-99.99,,,-99.99,,2013-02-17 05:42:00,
2013-02-16 23:52:00,19.0,14.0,-100.00,South,185,2.0,3.0,79,-99.99,,,-99.99,,2013-02-17 05:52:00,